Location: ?????
(55.8833°N, 37.6500°E)
Time: 18:02:28
(UTC+00:00)

Cosmos 2278 Rocket - Pass Details

Date: 27 February 2020
Orbit: 840 x 846 km, 71.0° (Epoch: 01 April)

Event Time Altitude Azimuth Distance (km) Brightness Sun altitude
Rises 19:54:39 0° 320° (NW) 3,412 6.3 -37.9°
Reaches altitude 10° 19:57:27 10° 332° (NNW) 2,476 5.3 -38.1°
Enters shadow 20:00:28 24° 359° (N) 1,686 4.1 -38.4°
